Regional Weather Roundup
Issued by NWS State College, PA

Home | Current Version | Previous Version | Graphics & Text | Print | Product List | Glossary On
Versions: 1 2 3 4 5 6 7 8 9 10 11 12 13 14 15 16 17 18 19 20 21 22 23 24 25 26 27 28 29 30 31 32 33 34 35 36 37 38 39 40 41 42 43 44 45 46 47 48 49 50
000
ASUS41 KCTP 262210
RWRCTP

REGIONAL WEATHER ROUNDUP
NATIONAL WEATHER SERVICE STATE COLLEGE PA
500 PM EST SUN FEB 26 2017

Note: "fair" indicates few or no clouds below 12,000 feet with no
significant weather and/or obstructions to visibility.

* = STATION THAT DOES NOT REPORT PRECIPITATION /E.G. RAIN...SNOW...ETC/
    THUNDER OR FOG.

PAZ002>004-007>009-013>016-020>023-029>032-262300-
WESTERN PENNSYLVANIA

CITY           SKY/WX    TMP DP  RH WIND       PRES   REMARKS
ERIE           SUNNY     38  19  46 SW14      30.07F
MEADVILLE      SUNNY     34  16  47 S13G18    30.07R
FRANKLIN*      SUNNY     34  14  44 S12       30.09F
NEW CASTLE     FAIR      39  15  37 SW8       30.12R
BEAVER COUNTY  SUNNY     37  14  38 W10G17    30.13
BUTLER*        SUNNY     37  16  41 S9        30.12S
PITTSBURGH INT MOSUNNY   39  15  37 SW8       30.12S
PITTSBURGH     SUNNY     39  12  33 SW9       30.12S
INDIANA*       SUNNY     36  18  48 W10       30.15R
LATROBE        SUNNY     37  14  38 W16       30.15R
WASHINGTON CO* SUNNY     39  14  35 SW6       30.15S
$$

PAZ004>006-010>012-017>019-024>028-033>037-041-042-045-046-049>053-262300-
CENTRAL PENNSYLVANIA

CITY           SKY/WX    TMP DP  RH WIND       PRES   REMARKS
BRADFORD       SUNNY     29  15  56 SW6       30.04S
DUBOIS         SUNNY     32  14  47 W10       30.08S
CLEARFIELD       N/A    N/A N/A N/A MISG      30.11R
JOHNSTOWN      SUNNY     32  14  47 W9        30.08R
ALTOONA        SUNNY     36  18  48 W10       30.12S
STATE COLLEGE  CLEAR     34  14  44 W12G18    30.13R
WILLIAMSPORT   CLEAR     37  14  38 W13       30.13R
SELINSGROVE    CLEAR     37  16  42 W8        30.16R
FT INDIANTOWN  CLEAR     38  12  34 W14       30.15R
CAPITAL CITY   CLEAR     40  14  34 W9G22     30.17R
HARRISBURG     PTCLDY    40  20  44 NW17G26   30.16R
YORK           CLEAR     40  19  43 W9        30.16R
$$

PAZ038>040-043-044-047-048-054-055-060>062-067>071-262300-
EASTERN PENNSYLVANIA

CITY           SKY/WX    TMP DP  RH WIND       PRES   REMARKS
SCRANTON       CLOUDY    35  18  49 NW9       30.08R
MOUNT POCONO   CLOUDY    29  16  58 W7        30.03R
ALLENTOWN      PTCLDY    38  16  40 NW14G21   30.13R
QUAKERTOWN*    CLOUDY    37  16  41 NW8G16    30.13R
READING        PTCLDY    39  17  41 W16       30.14R
LANCASTER      MOCLDY    40  19  43 W20       30.16R
COATESVILLE    PTCLDY    39  18  41 NW16      30.15R
POTTSTOWN      PTCLDY    39  16  39 NW13G20   30.15R
BLUE BELL      PTCLDY    37  19  48 W6        30.13R
DOYLESTOWN     MOCLDY    40  18  41 W10       30.12R
WILLOW GROVE   NOT AVBL
NORTH PHILA    PTCLDY    42  17  36 W13G25    30.15R
PHILADELPHIA   PTCLDY    43  16  33 W20G25    30.16R
$$



USA.gov is the U.S. government's official web portal to all federal, state and local government web resources and services.